Year,Month,Day,Hour,Minute,Value (Times are PST for temperature in C)
2021,05,19,00,00,6.60
2021,05,19,00,01,6.60
2021,05,19,00,02,6.60
2021,05,19,00,03,6.60
2021,05,19,00,04,6.60
2021,05,19,00,05,6.60
2021,05,19,00,06,6.60
2021,05,19,00,07,6.60
2021,05,19,00,08,6.60
2021,05,19,00,09,6.60
2021,05,19,00,10,6.60
2021,05,19,00,11,6.60
2021,05,19,00,12,6.60
2021,05,19,00,13,6.60
2021,05,19,00,14,6.60
2021,05,19,00,15,6.60
2021,05,19,00,16,6.60
2021,05,19,00,17,6.60
2021,05,19,00,18,6.60
2021,05,19,00,19,6.60
2021,05,19,00,20,6.60
2021,05,19,00,21,6.60
2021,05,19,00,22,6.60
2021,05,19,00,23,6.60
2021,05,19,00,24,6.60
2021,05,19,00,25,6.60
2021,05,19,00,26,6.60
2021,05,19,00,27,6.60
2021,05,19,00,28,6.60
2021,05,19,00,29,6.60
2021,05,19,00,30,6.60
2021,05,19,00,31,6.60
2021,05,19,00,32,6.60
2021,05,19,00,33,6.60
2021,05,19,00,34,6.60
2021,05,19,00,35,6.60
2021,05,19,00,36,6.60
2021,05,19,00,37,6.60
2021,05,19,00,38,6.70
2021,05,19,00,39,6.60
2021,05,19,00,40,6.70
2021,05,19,00,41,6.70
2021,05,19,00,42,6.70
2021,05,19,00,43,6.70
2021,05,19,00,44,6.70
2021,05,19,00,45,6.70
2021,05,19,00,46,6.70
2021,05,19,00,47,6.70
2021,05,19,00,48,6.70
2021,05,19,00,49,6.70
2021,05,19,00,50,6.70
2021,05,19,00,51,6.70
2021,05,19,00,52,6.70
2021,05,19,00,53,6.70
2021,05,19,00,54,6.70
2021,05,19,00,55,6.70
2021,05,19,00,56,6.70
2021,05,19,00,57,6.70
2021,05,19,00,58,6.70
2021,05,19,00,59,6.60
2021,05,19,01,00,6.60
2021,05,19,01,01,6.60
2021,05,19,01,02,6.60
2021,05,19,01,03,6.60
2021,05,19,01,04,6.50
2021,05,19,01,05,6.50
2021,05,19,01,06,6.50
2021,05,19,01,07,6.40
2021,05,19,01,08,6.40
2021,05,19,01,09,6.40
2021,05,19,01,10,6.40
2021,05,19,01,11,6.40
2021,05,19,01,12,6.40
2021,05,19,01,13,6.40
2021,05,19,01,14,6.40
2021,05,19,01,15,6.30
2021,05,19,01,16,6.30
2021,05,19,01,17,6.30
2021,05,19,01,18,6.30
2021,05,19,01,19,6.30
2021,05,19,01,20,6.20
2021,05,19,01,21,6.20
2021,05,19,01,22,6.20
2021,05,19,01,23,6.20
2021,05,19,01,24,6.20
2021,05,19,01,25,6.20
2021,05,19,01,26,6.20
2021,05,19,01,27,6.20
2021,05,19,01,28,6.10
2021,05,19,01,29,6.10
2021,05,19,01,30,6.10
2021,05,19,01,31,6.10
2021,05,19,01,32,6.10
2021,05,19,01,33,6.00
2021,05,19,01,34,6.00
2021,05,19,01,35,6.00
2021,05,19,01,36,5.90
2021,05,19,01,37,5.90
2021,05,19,01,38,5.90
2021,05,19,01,39,5.90
2021,05,19,01,40,5.80
2021,05,19,01,41,5.80
2021,05,19,01,42,5.80
2021,05,19,01,43,5.80
2021,05,19,01,44,5.70
2021,05,19,01,45,5.70
2021,05,19,01,46,5.70
2021,05,19,01,47,5.70
2021,05,19,01,48,5.70
2021,05,19,01,49,5.70
2021,05,19,01,50,5.60
2021,05,19,01,51,5.60
2021,05,19,01,52,5.60
2021,05,19,01,53,5.60
2021,05,19,01,54,5.60
2021,05,19,01,55,5.60
2021,05,19,01,56,5.60
2021,05,19,01,57,5.50
2021,05,19,01,58,5.50
2021,05,19,01,59,5.50
2021,05,19,02,00,5.50
2021,05,19,02,01,5.50
2021,05,19,02,02,5.50
2021,05,19,02,03,5.50
2021,05,19,02,04,5.50
2021,05,19,02,05,5.50
2021,05,19,02,06,5.50
2021,05,19,02,07,5.50
2021,05,19,02,08,5.50
2021,05,19,02,09,5.50
2021,05,19,02,10,5.50
2021,05,19,02,11,5.50
2021,05,19,02,12,5.50
2021,05,19,02,13,5.50
2021,05,19,02,14,5.50
2021,05,19,02,15,5.50
2021,05,19,02,16,5.50
2021,05,19,02,17,5.50
2021,05,19,02,18,5.50
2021,05,19,02,19,5.50
2021,05,19,02,20,5.50
2021,05,19,02,21,5.50
2021,05,19,02,22,5.50
2021,05,19,02,23,5.50
2021,05,19,02,24,5.50
2021,05,19,02,25,5.50
2021,05,19,02,26,5.50
2021,05,19,02,27,5.50
2021,05,19,02,28,5.50
2021,05,19,02,29,5.60
2021,05,19,02,30,5.60
2021,05,19,02,31,5.60
2021,05,19,02,32,5.60
2021,05,19,02,33,5.60
2021,05,19,02,34,5.60
2021,05,19,02,35,5.60
2021,05,19,02,36,5.50
2021,05,19,02,37,5.50
2021,05,19,02,38,5.50
2021,05,19,02,39,5.50
2021,05,19,02,40,5.50
2021,05,19,02,41,5.50
2021,05,19,02,42,5.50
2021,05,19,02,43,5.50
2021,05,19,02,44,5.50
2021,05,19,02,45,5.50
2021,05,19,02,46,5.50
2021,05,19,02,47,5.50
2021,05,19,02,48,5.50
2021,05,19,02,49,5.50
2021,05,19,02,50,5.50
2021,05,19,02,51,5.50
2021,05,19,02,52,5.50
2021,05,19,02,53,5.50
2021,05,19,02,54,5.50
2021,05,19,02,55,5.50
2021,05,19,02,56,5.50
2021,05,19,02,57,5.50
2021,05,19,02,58,5.60
2021,05,19,02,59,5.60
2021,05,19,03,00,5.60
2021,05,19,03,01,5.60
2021,05,19,03,02,5.60
2021,05,19,03,03,5.60
2021,05,19,03,04,5.60
2021,05,19,03,05,5.60
2021,05,19,03,06,5.60
2021,05,19,03,07,5.60
2021,05,19,03,08,5.60
2021,05,19,03,09,5.60
2021,05,19,03,10,5.60
2021,05,19,03,11,5.60
2021,05,19,03,12,5.60
2021,05,19,03,13,5.60
2021,05,19,03,14,5.60
2021,05,19,03,15,5.60
2021,05,19,03,16,5.60
2021,05,19,03,17,5.60
2021,05,19,03,18,5.60
2021,05,19,03,19,5.60
2021,05,19,03,20,5.60
2021,05,19,03,21,5.60
2021,05,19,03,22,5.60
2021,05,19,03,23,5.60
2021,05,19,03,24,5.60
2021,05,19,03,25,5.60
2021,05,19,03,26,5.60
2021,05,19,03,27,5.60
2021,05,19,03,28,5.60
2021,05,19,03,29,5.60
2021,05,19,03,30,5.60
2021,05,19,03,31,5.60
2021,05,19,03,32,5.60
2021,05,19,03,33,5.60
2021,05,19,03,34,5.60
2021,05,19,03,35,5.60
2021,05,19,03,36,5.60
2021,05,19,03,37,5.60
2021,05,19,03,38,5.60
2021,05,19,03,39,5.60
2021,05,19,03,40,5.60
2021,05,19,03,41,5.60
2021,05,19,03,42,5.60
2021,05,19,03,43,5.60
2021,05,19,03,44,5.60
2021,05,19,03,45,5.60
2021,05,19,03,46,5.70
2021,05,19,03,47,5.70
2021,05,19,03,48,5.70
2021,05,19,03,49,5.70
2021,05,19,03,50,5.70
2021,05,19,03,51,5.70
2021,05,19,03,52,5.80
2021,05,19,03,53,5.80
2021,05,19,03,54,5.80
2021,05,19,03,55,5.80
2021,05,19,03,56,5.80
2021,05,19,03,57,5.80
2021,05,19,03,58,5.70
2021,05,19,03,59,5.70
2021,05,19,04,00,5.70
2021,05,19,04,01,5.70
2021,05,19,04,02,5.70
2021,05,19,04,03,5.60
2021,05,19,04,04,5.60
2021,05,19,04,05,5.70
2021,05,19,04,06,5.70
2021,05,19,04,07,5.70
2021,05,19,04,08,5.70
2021,05,19,04,09,5.70
2021,05,19,04,10,5.70
2021,05,19,04,11,5.70
2021,05,19,04,12,5.70
2021,05,19,04,13,5.70
2021,05,19,04,14,5.70
2021,05,19,04,15,5.70
2021,05,19,04,16,5.70
2021,05,19,04,17,5.70
2021,05,19,04,18,5.70
2021,05,19,04,19,5.70
2021,05,19,04,20,5.70
2021,05,19,04,21,5.70
2021,05,19,04,22,5.70
2021,05,19,04,23,5.70
2021,05,19,04,24,5.70
2021,05,19,04,25,5.70
2021,05,19,04,26,5.70
2021,05,19,04,27,5.70
2021,05,19,04,28,5.70
2021,05,19,04,29,5.70
2021,05,19,04,30,5.70
2021,05,19,04,31,5.70
2021,05,19,04,32,5.70
2021,05,19,04,33,5.70
2021,05,19,04,34,5.70
2021,05,19,04,35,5.80
2021,05,19,04,36,5.80
2021,05,19,04,37,5.80
2021,05,19,04,38,5.80
2021,05,19,04,39,5.80
2021,05,19,04,40,5.80
2021,05,19,04,41,5.80
2021,05,19,04,42,5.80
2021,05,19,04,43,5.80
2021,05,19,04,44,5.80
2021,05,19,04,45,5.90
2021,05,19,04,46,5.90
2021,05,19,04,47,5.90
2021,05,19,04,48,5.90
2021,05,19,04,49,5.90
2021,05,19,04,50,5.90
2021,05,19,04,51,5.90
2021,05,19,04,52,5.90
2021,05,19,04,53,5.90
2021,05,19,04,54,5.90
2021,05,19,04,55,5.90
2021,05,19,04,56,5.90
2021,05,19,04,57,5.90
2021,05,19,04,58,5.90
2021,05,19,04,59,5.90
2021,05,19,05,00,5.90
2021,05,19,05,01,5.90
2021,05,19,05,02,5.90
2021,05,19,05,03,5.90
2021,05,19,05,04,5.90
2021,05,19,05,05,5.90
2021,05,19,05,06,5.90
2021,05,19,05,07,5.90
2021,05,19,05,08,5.90
2021,05,19,05,09,5.90
2021,05,19,05,10,5.90
2021,05,19,05,11,5.90
2021,05,19,05,12,5.90
2021,05,19,05,13,5.90
2021,05,19,05,14,5.90
2021,05,19,05,15,5.90
2021,05,19,05,16,5.90
2021,05,19,05,17,5.90
2021,05,19,05,18,5.90
2021,05,19,05,19,5.90
2021,05,19,05,20,5.90
2021,05,19,05,21,5.90
2021,05,19,05,22,5.90
2021,05,19,05,23,5.90
2021,05,19,05,24,5.90
2021,05,19,05,25,5.90
2021,05,19,05,26,5.90
2021,05,19,05,27,5.90
2021,05,19,05,28,5.90
2021,05,19,05,29,5.90
2021,05,19,05,30,5.90
2021,05,19,05,31,5.90
2021,05,19,05,32,5.90
2021,05,19,05,33,5.90
2021,05,19,05,34,5.90
2021,05,19,05,35,5.90
2021,05,19,05,36,5.90
2021,05,19,05,37,5.90
2021,05,19,05,38,5.90
2021,05,19,05,39,5.90
2021,05,19,05,40,6.00
2021,05,19,05,41,6.00
2021,05,19,05,42,6.00
2021,05,19,05,43,6.00
2021,05,19,05,44,6.00
2021,05,19,05,45,6.10
2021,05,19,05,46,6.10
2021,05,19,05,47,6.00
2021,05,19,05,48,6.10
2021,05,19,05,49,6.10
2021,05,19,05,50,6.00
2021,05,19,05,51,6.10
2021,05,19,05,52,6.10
2021,05,19,05,53,6.10
2021,05,19,05,54,6.10
2021,05,19,05,55,6.10
2021,05,19,05,56,6.10
2021,05,19,05,57,6.10
2021,05,19,05,58,6.10
2021,05,19,05,59,6.10
2021,05,19,06,00,6.10
2021,05,19,06,01,6.10
2021,05,19,06,02,6.10
2021,05,19,06,03,6.10
2021,05,19,06,04,6.10
2021,05,19,06,05,6.10
2021,05,19,06,06,6.10
2021,05,19,06,07,6.10
2021,05,19,06,08,6.10
2021,05,19,06,09,6.10
2021,05,19,06,10,6.10
2021,05,19,06,11,6.10
2021,05,19,06,12,6.10
2021,05,19,06,13,6.10
2021,05,19,06,14,6.20
2021,05,19,06,15,6.20
2021,05,19,06,16,6.20
2021,05,19,06,17,6.20
2021,05,19,06,18,6.20
2021,05,19,06,19,6.20
2021,05,19,06,20,6.20
2021,05,19,06,21,6.20
2021,05,19,06,22,6.20
2021,05,19,06,23,6.20
2021,05,19,06,24,6.20
2021,05,19,06,25,6.20
2021,05,19,06,26,6.20
2021,05,19,06,27,6.20
2021,05,19,06,28,6.20
2021,05,19,06,29,6.20
2021,05,19,06,30,6.20
2021,05,19,06,31,6.20
2021,05,19,06,32,6.20
2021,05,19,06,33,6.20
2021,05,19,06,34,6.20
2021,05,19,06,35,6.20
2021,05,19,06,36,6.20
2021,05,19,06,37,6.20
2021,05,19,06,38,6.20
2021,05,19,06,39,6.20
2021,05,19,06,40,6.20
2021,05,19,06,41,6.20
2021,05,19,06,42,6.20
2021,05,19,06,43,6.20
2021,05,19,06,44,6.20
2021,05,19,06,45,6.20
2021,05,19,06,46,6.20
2021,05,19,06,47,6.20
2021,05,19,06,48,6.20
2021,05,19,06,49,6.20
2021,05,19,06,50,6.20
2021,05,19,06,51,6.20
2021,05,19,06,52,6.20
2021,05,19,06,53,6.20
2021,05,19,06,54,6.20
2021,05,19,06,55,6.20
2021,05,19,06,56,6.20
2021,05,19,06,57,6.20
2021,05,19,06,58,6.20
2021,05,19,06,59,6.10
2021,05,19,07,00,6.10
2021,05,19,07,01,6.10
2021,05,19,07,02,6.10
2021,05,19,07,03,6.10
2021,05,19,07,04,6.10
2021,05,19,07,05,6.10
2021,05,19,07,06,6.10
2021,05,19,07,07,6.10
2021,05,19,07,08,6.10
2021,05,19,07,09,6.20
2021,05,19,07,10,6.20
2021,05,19,07,11,6.20
2021,05,19,07,12,6.20
2021,05,19,07,13,6.20
2021,05,19,07,14,6.20
2021,05,19,07,15,6.20
2021,05,19,07,16,6.20
2021,05,19,07,17,6.20
2021,05,19,07,18,6.20
2021,05,19,07,19,6.20
2021,05,19,07,20,6.20
2021,05,19,07,21,6.20
2021,05,19,07,22,6.20
2021,05,19,07,23,6.20
2021,05,19,07,24,6.20
2021,05,19,07,25,6.20
2021,05,19,07,26,6.20
2021,05,19,07,27,6.20
2021,05,19,07,28,6.20
2021,05,19,07,29,6.30
2021,05,19,07,30,6.30
2021,05,19,07,31,6.30
2021,05,19,07,32,6.40
2021,05,19,07,33,6.40
2021,05,19,07,34,6.40
2021,05,19,07,35,6.50
2021,05,19,07,36,6.50
2021,05,19,07,37,6.60
2021,05,19,07,38,6.60
2021,05,19,07,39,6.70
2021,05,19,07,40,6.80
2021,05,19,07,41,6.90
2021,05,19,07,42,7.00
2021,05,19,07,43,7.10
2021,05,19,07,44,7.10
2021,05,19,07,45,7.20
2021,05,19,07,46,7.20
2021,05,19,07,47,7.30
2021,05,19,07,48,7.30
2021,05,19,07,49,7.30
2021,05,19,07,50,7.30
2021,05,19,07,51,7.30
2021,05,19,07,52,7.30
2021,05,19,07,53,7.40
2021,05,19,07,54,7.40
2021,05,19,07,55,7.50
2021,05,19,07,56,7.50
2021,05,19,07,57,7.60
2021,05,19,07,58,7.70
2021,05,19,07,59,7.70
2021,05,19,08,00,7.80
2021,05,19,08,01,7.80
2021,05,19,08,02,7.90
2021,05,19,08,03,7.90
2021,05,19,08,04,7.90
2021,05,19,08,05,8.00
2021,05,19,08,06,8.10
2021,05,19,08,07,8.10
2021,05,19,08,08,8.10
2021,05,19,08,09,8.10
2021,05,19,08,10,8.10
2021,05,19,08,11,8.10
2021,05,19,08,12,8.00
2021,05,19,08,13,8.00
2021,05,19,08,14,8.00
2021,05,19,08,15,8.00
2021,05,19,08,16,8.00
2021,05,19,08,17,8.00
2021,05,19,08,18,7.90
2021,05,19,08,19,8.00
2021,05,19,08,20,8.00
2021,05,19,08,21,7.90
2021,05,19,08,22,7.90
2021,05,19,08,23,8.00
2021,05,19,08,24,8.00
2021,05,19,08,25,8.10
2021,05,19,08,26,8.10
2021,05,19,08,27,8.20
2021,05,19,08,28,8.20
2021,05,19,08,29,8.20
2021,05,19,08,30,8.30
2021,05,19,08,31,8.30
2021,05,19,08,32,8.40
2021,05,19,08,33,8.40
2021,05,19,08,34,8.40
2021,05,19,08,35,8.50
2021,05,19,08,36,8.50
2021,05,19,08,37,8.60
2021,05,19,08,38,8.60
2021,05,19,08,39,8.60
2021,05,19,08,40,8.60
2021,05,19,08,41,8.60
2021,05,19,08,42,8.60
2021,05,19,08,43,8.60
2021,05,19,08,44,8.50
2021,05,19,08,45,8.50
2021,05,19,08,46,8.40
2021,05,19,08,47,8.40
2021,05,19,08,48,8.40
2021,05,19,08,49,8.30
2021,05,19,08,50,8.30
2021,05,19,08,51,8.30
2021,05,19,08,52,8.30
2021,05,19,08,53,8.30
2021,05,19,08,54,8.30
2021,05,19,08,55,8.40
2021,05,19,08,56,8.50
2021,05,19,08,57,8.50
2021,05,19,08,58,8.60
2021,05,19,08,59,8.60
2021,05,19,09,00,8.60
2021,05,19,09,01,8.60
2021,05,19,09,02,8.70
2021,05,19,09,03,8.80
2021,05,19,09,04,8.90
2021,05,19,09,05,8.90
2021,05,19,09,06,8.90
2021,05,19,09,07,8.90
2021,05,19,09,08,8.90
2021,05,19,09,09,8.90
2021,05,19,09,10,8.90
2021,05,19,09,11,8.90
2021,05,19,09,12,8.90
2021,05,19,09,13,8.90
2021,05,19,09,14,9.00
2021,05,19,09,15,9.00
2021,05,19,09,16,9.00
2021,05,19,09,17,9.00
2021,05,19,09,18,9.00
2021,05,19,09,19,9.00
2021,05,19,09,20,9.00
2021,05,19,09,21,9.00
2021,05,19,09,22,9.00
2021,05,19,09,23,9.00
2021,05,19,09,24,9.00
2021,05,19,09,25,9.00
2021,05,19,09,26,9.00
2021,05,19,09,27,9.00
2021,05,19,09,28,9.00
2021,05,19,09,29,8.90
2021,05,19,09,30,9.00
2021,05,19,09,31,8.90
2021,05,19,09,32,8.90
2021,05,19,09,33,8.90
2021,05,19,09,34,8.90
2021,05,19,09,35,8.90
2021,05,19,09,36,8.90
2021,05,19,09,37,8.90
2021,05,19,09,38,8.90
2021,05,19,09,39,8.90
2021,05,19,09,40,8.90
2021,05,19,09,41,8.90
2021,05,19,09,42,9.00
2021,05,19,09,43,9.00
2021,05,19,09,44,9.10
2021,05,19,09,45,9.10
2021,05,19,09,46,9.10
2021,05,19,09,47,9.20
2021,05,19,09,48,9.20
2021,05,19,09,49,9.20
2021,05,19,09,50,9.20
2021,05,19,09,51,9.20
2021,05,19,09,52,9.20
2021,05,19,09,53,9.20
2021,05,19,09,54,9.20
2021,05,19,09,55,9.20
2021,05,19,09,56,9.20
2021,05,19,09,57,9.20
2021,05,19,09,58,9.20
2021,05,19,09,59,9.20
2021,05,19,10,00,9.20
2021,05,19,10,01,9.30
2021,05,19,10,02,9.30
2021,05,19,10,03,9.30
2021,05,19,10,04,9.30
2021,05,19,10,05,9.40
2021,05,19,10,06,9.40
2021,05,19,10,07,9.40
2021,05,19,10,08,9.40
2021,05,19,10,09,9.40
2021,05,19,10,10,9.40
2021,05,19,10,11,9.40
2021,05,19,10,12,9.40
2021,05,19,10,13,9.50
2021,05,19,10,14,9.50
2021,05,19,10,15,9.60
2021,05,19,10,16,9.60
2021,05,19,10,17,9.70
2021,05,19,10,18,9.70
2021,05,19,10,19,9.80
2021,05,19,10,20,9.80
2021,05,19,10,21,9.90
2021,05,19,10,22,9.90
2021,05,19,10,23,10.00
2021,05,19,10,24,10.10
2021,05,19,10,25,10.20
2021,05,19,10,26,10.30
2021,05,19,10,27,10.40
2021,05,19,10,28,10.50
2021,05,19,10,29,10.50
2021,05,19,10,30,10.50
2021,05,19,10,31,10.60
2021,05,19,10,32,10.60
2021,05,19,10,33,10.70
2021,05,19,10,34,10.70
2021,05,19,10,35,10.70
2021,05,19,10,36,10.70
2021,05,19,10,37,10.80
2021,05,19,10,38,10.80
2021,05,19,10,39,10.80
2021,05,19,10,40,10.80
2021,05,19,10,41,10.80
2021,05,19,10,42,10.80
2021,05,19,10,43,10.90
2021,05,19,10,44,10.90
2021,05,19,10,45,11.00
2021,05,19,10,46,11.10
2021,05,19,10,47,11.00
2021,05,19,10,48,11.00
2021,05,19,10,49,11.00
2021,05,19,10,50,11.00
2021,05,19,10,51,11.00
2021,05,19,10,52,10.90
2021,05,19,10,53,10.90
2021,05,19,10,54,11.00
2021,05,19,10,55,11.00
2021,05,19,10,56,11.10
2021,05,19,10,57,11.10
2021,05,19,10,58,11.20
2021,05,19,10,59,11.20
2021,05,19,11,00,11.20
2021,05,19,11,01,11.20
2021,05,19,11,02,11.10
2021,05,19,11,03,11.10
2021,05,19,11,04,11.10
2021,05,19,11,05,11.00
2021,05,19,11,06,11.00
2021,05,19,11,07,11.00
2021,05,19,11,08,10.90
2021,05,19,11,09,11.00
2021,05,19,11,10,11.10
2021,05,19,11,11,11.10
2021,05,19,11,12,11.20
2021,05,19,11,13,11.20
2021,05,19,11,14,11.20
2021,05,19,11,15,11.20
2021,05,19,11,16,11.20
2021,05,19,11,17,11.20
2021,05,19,11,18,11.30
2021,05,19,11,19,11.40
2021,05,19,11,20,11.40
2021,05,19,11,21,11.40
2021,05,19,11,22,11.30
2021,05,19,11,23,11.30
2021,05,19,11,24,11.30
2021,05,19,11,25,11.30
2021,05,19,11,26,11.30
2021,05,19,11,27,11.30
2021,05,19,11,28,11.30
2021,05,19,11,29,11.30
2021,05,19,11,30,11.30
2021,05,19,11,31,11.40
2021,05,19,11,32,11.50
2021,05,19,11,33,11.60
2021,05,19,11,34,11.60
2021,05,19,11,35,11.50
2021,05,19,11,36,11.50
2021,05,19,11,37,11.50
2021,05,19,11,38,11.60
2021,05,19,11,39,11.60
2021,05,19,11,40,11.50
2021,05,19,11,41,11.50
2021,05,19,11,42,11.40
2021,05,19,11,43,11.40
2021,05,19,11,44,11.50
2021,05,19,11,45,11.50
2021,05,19,11,46,11.40
2021,05,19,11,47,11.40
2021,05,19,11,48,11.40
2021,05,19,11,49,11.50
2021,05,19,11,50,11.50
2021,05,19,11,51,11.60
2021,05,19,11,52,11.60
2021,05,19,11,53,11.60
2021,05,19,11,54,11.60
2021,05,19,11,55,11.70
2021,05,19,11,56,11.70
2021,05,19,11,57,11.70
2021,05,19,11,58,11.70
2021,05,19,11,59,11.70
2021,05,19,12,00,11.70
2021,05,19,12,01,11.70
2021,05,19,12,02,11.70
2021,05,19,12,03,11.70
2021,05,19,12,04,11.70
2021,05,19,12,05,11.70
2021,05,19,12,06,11.70
2021,05,19,12,07,11.70
2021,05,19,12,08,11.70
2021,05,19,12,09,11.70
2021,05,19,12,10,11.70
2021,05,19,12,11,11.70
2021,05,19,12,12,11.70
2021,05,19,12,13,11.80
2021,05,19,12,14,11.80
2021,05,19,12,15,11.90
2021,05,19,12,16,11.90
2021,05,19,12,17,12.00
2021,05,19,12,18,12.10
2021,05,19,12,19,12.10
2021,05,19,12,20,12.20
2021,05,19,12,21,12.20
2021,05,19,12,22,12.30
2021,05,19,12,23,12.30
2021,05,19,12,24,12.40
2021,05,19,12,25,12.50
2021,05,19,12,26,12.50
2021,05,19,12,27,12.60
2021,05,19,12,28,12.60
2021,05,19,12,29,12.60
2021,05,19,12,30,12.60
2021,05,19,12,31,12.70
2021,05,19,12,32,12.80
2021,05,19,12,33,12.90
2021,05,19,12,34,12.90
2021,05,19,12,35,13.00
2021,05,19,12,36,13.10
2021,05,19,12,37,13.10
2021,05,19,12,38,13.10
2021,05,19,12,39,13.00
2021,05,19,12,40,13.00
2021,05,19,12,41,12.90
2021,05,19,12,42,12.90
2021,05,19,12,43,12.90
2021,05,19,12,44,12.90
2021,05,19,12,45,12.90
2021,05,19,12,46,13.00
2021,05,19,12,47,13.10
2021,05,19,12,48,13.30
2021,05,19,12,49,13.40
2021,05,19,12,50,13.50
2021,05,19,12,51,13.60
2021,05,19,12,52,13.60
2021,05,19,12,53,13.50
2021,05,19,12,54,13.40
2021,05,19,12,55,13.30
2021,05,19,12,56,13.20
2021,05,19,12,57,13.10
2021,05,19,12,58,13.10
2021,05,19,12,59,13.10
2021,05,19,13,00,13.00
2021,05,19,13,01,13.00
2021,05,19,13,02,13.00
2021,05,19,13,03,13.10
2021,05,19,13,04,13.20
2021,05,19,13,05,13.20
2021,05,19,13,06,13.20
2021,05,19,13,07,13.20
2021,05,19,13,08,13.20
2021,05,19,13,09,13.20
2021,05,19,13,10,13.20
2021,05,19,13,11,13.20
2021,05,19,13,12,13.30
2021,05,19,13,13,13.40
2021,05,19,13,14,13.50
2021,05,19,13,15,13.70
2021,05,19,13,16,13.80
2021,05,19,13,17,13.80
2021,05,19,13,18,13.80
2021,05,19,13,19,13.80
2021,05,19,13,20,13.80
2021,05,19,13,21,13.80
2021,05,19,13,22,13.80
2021,05,19,13,23,13.80
2021,05,19,13,24,13.80
2021,05,19,13,25,13.70
2021,05,19,13,26,13.70
2021,05,19,13,27,13.60
2021,05,19,13,28,13.60
2021,05,19,13,29,13.50
2021,05,19,13,30,13.50
2021,05,19,13,31,13.50
2021,05,19,13,32,13.50
2021,05,19,13,33,13.40
2021,05,19,13,34,13.50
2021,05,19,13,35,13.60
2021,05,19,13,36,13.70
2021,05,19,13,37,13.80
2021,05,19,13,38,13.90
2021,05,19,13,39,14.00
2021,05,19,13,40,14.10
2021,05,19,13,41,14.10
2021,05,19,13,42,14.10
2021,05,19,13,43,14.10
2021,05,19,13,44,14.20
2021,05,19,13,45,14.10
2021,05,19,13,46,14.10
2021,05,19,13,47,14.10
2021,05,19,13,48,14.00
2021,05,19,13,49,14.00
2021,05,19,13,50,14.00
2021,05,19,13,51,13.90
2021,05,19,13,52,13.90
2021,05,19,13,53,13.80
2021,05,19,13,54,13.80
2021,05,19,13,55,13.80
2021,05,19,13,56,13.80
2021,05,19,13,57,13.90
2021,05,19,13,58,14.00
2021,05,19,13,59,14.10
2021,05,19,14,00,14.20
2021,05,19,14,01,14.20
2021,05,19,14,02,14.40
2021,05,19,14,03,14.50
2021,05,19,14,04,14.50
2021,05,19,14,05,14.50
2021,05,19,14,06,14.60
2021,05,19,14,07,14.70
2021,05,19,14,08,14.80
2021,05,19,14,09,14.70
2021,05,19,14,10,14.70
2021,05,19,14,11,14.80
2021,05,19,14,12,14.90
2021,05,19,14,13,15.10
2021,05,19,14,14,15.20
2021,05,19,14,15,15.20
2021,05,19,14,16,15.20
2021,05,19,14,17,15.30
2021,05,19,14,18,15.20
2021,05,19,14,19,15.10
2021,05,19,14,20,15.00
2021,05,19,14,21,14.90
2021,05,19,14,22,14.80
2021,05,19,14,23,14.80
2021,05,19,14,24,14.80
2021,05,19,14,25,14.80
2021,05,19,14,26,14.80
2021,05,19,14,27,14.70
2021,05,19,14,28,14.60
2021,05,19,14,29,14.60
2021,05,19,14,30,14.70
2021,05,19,14,31,14.70
2021,05,19,14,32,14.70
2021,05,19,14,33,14.70
2021,05,19,14,34,14.70
2021,05,19,14,35,14.80
2021,05,19,14,36,14.90
2021,05,19,14,37,15.00
2021,05,19,14,38,15.10
2021,05,19,14,39,15.20
2021,05,19,14,40,15.20
2021,05,19,14,41,15.20
2021,05,19,14,42,15.20
2021,05,19,14,43,15.20
2021,05,19,14,44,15.10
2021,05,19,14,45,15.10
2021,05,19,14,46,15.10
2021,05,19,14,47,15.10
2021,05,19,14,48,15.20
2021,05,19,14,49,15.20
2021,05,19,14,50,15.10
2021,05,19,14,51,15.10
2021,05,19,14,52,15.20
2021,05,19,14,53,15.30
2021,05,19,14,54,15.30
2021,05,19,14,55,15.40
2021,05,19,14,56,15.40
2021,05,19,14,57,15.40
2021,05,19,14,58,15.40
2021,05,19,14,59,15.50
2021,05,19,15,00,15.60
2021,05,19,15,01,15.60
2021,05,19,15,02,15.70
2021,05,19,15,03,15.70
2021,05,19,15,04,15.80
2021,05,19,15,05,15.90
2021,05,19,15,06,15.90
2021,05,19,15,07,15.80
2021,05,19,15,08,15.80
2021,05,19,15,09,15.80
2021,05,19,15,10,15.80
2021,05,19,15,11,15.80
2021,05,19,15,12,15.80
2021,05,19,15,13,15.80
2021,05,19,15,14,15.80
2021,05,19,15,15,15.80
2021,05,19,15,16,15.80
2021,05,19,15,17,15.80
2021,05,19,15,18,15.80
2021,05,19,15,19,15.80
2021,05,19,15,20,15.80
2021,05,19,15,21,15.80
2021,05,19,15,22,15.80
2021,05,19,15,23,15.70
2021,05,19,15,24,15.70
2021,05,19,15,25,15.70
2021,05,19,15,26,15.80
2021,05,19,15,27,15.70
2021,05,19,15,28,15.70
2021,05,19,15,29,15.70
2021,05,19,15,30,15.80
2021,05,19,15,31,15.90
2021,05,19,15,32,16.00
2021,05,19,15,33,16.10
2021,05,19,15,34,16.10
2021,05,19,15,35,16.10
2021,05,19,15,36,16.00
2021,05,19,15,37,16.00
2021,05,19,15,38,16.00
2021,05,19,15,39,16.00
2021,05,19,15,40,15.90
2021,05,19,15,41,15.80
2021,05,19,15,42,15.80
2021,05,19,15,43,15.90
2021,05,19,15,44,15.90
2021,05,19,15,45,15.90
2021,05,19,15,46,15.90
2021,05,19,15,47,15.90
2021,05,19,15,48,15.90
2021,05,19,15,49,15.90
2021,05,19,15,50,16.00
2021,05,19,15,51,16.10
2021,05,19,15,52,16.20
2021,05,19,15,53,16.20
2021,05,19,15,54,16.10
2021,05,19,15,55,16.00
2021,05,19,15,56,16.00
2021,05,19,15,57,15.90
2021,05,19,15,58,15.90
2021,05,19,15,59,15.80
2021,05,19,16,00,15.90
2021,05,19,16,01,15.90
2021,05,19,16,02,15.90
2021,05,19,16,03,16.00
2021,05,19,16,04,16.10
2021,05,19,16,05,16.10
2021,05,19,16,06,16.10
2021,05,19,16,07,16.10
2021,05,19,16,08,16.10
2021,05,19,16,09,16.20
2021,05,19,16,10,16.30
2021,05,19,16,11,16.30
2021,05,19,16,12,16.30
2021,05,19,16,13,16.30
2021,05,19,16,14,16.30
2021,05,19,16,15,16.30
2021,05,19,16,16,16.40
2021,05,19,16,17,16.40
2021,05,19,16,18,16.30
2021,05,19,16,19,16.30
2021,05,19,16,20,16.20
2021,05,19,16,21,16.20
2021,05,19,16,22,16.20
2021,05,19,16,23,16.20
2021,05,19,16,24,16.20
2021,05,19,16,25,16.20
2021,05,19,16,26,16.10
2021,05,19,16,27,16.10
2021,05,19,16,28,16.10
2021,05,19,16,29,16.10
2021,05,19,16,30,16.10
2021,05,19,16,31,16.20
2021,05,19,16,32,16.20
2021,05,19,16,33,16.30
2021,05,19,16,34,16.30
2021,05,19,16,35,16.30
2021,05,19,16,36,16.20
2021,05,19,16,37,16.20
2021,05,19,16,38,16.20
2021,05,19,16,39,16.20
2021,05,19,16,40,16.10
2021,05,19,16,41,16.00
2021,05,19,16,42,15.90
2021,05,19,16,43,15.80
2021,05,19,16,44,15.70
2021,05,19,16,45,15.60
2021,05,19,16,46,15.50
2021,05,19,16,47,15.50
2021,05,19,16,48,15.50
2021,05,19,16,49,15.50
2021,05,19,16,50,15.50
2021,05,19,16,51,15.50
2021,05,19,16,52,15.40
2021,05,19,16,53,15.40
2021,05,19,16,54,15.40
2021,05,19,16,55,15.30
2021,05,19,16,56,15.20
2021,05,19,16,57,15.10
2021,05,19,16,58,15.10
2021,05,19,16,59,15.20
2021,05,19,17,00,15.20
2021,05,19,17,01,15.30
2021,05,19,17,02,15.30
2021,05,19,17,03,15.40
2021,05,19,17,04,15.40
2021,05,19,17,05,15.50
2021,05,19,17,06,15.50
2021,05,19,17,07,15.60
2021,05,19,17,08,15.80
2021,05,19,17,09,15.90
2021,05,19,17,10,15.90
2021,05,19,17,11,16.00
2021,05,19,17,12,16.00
2021,05,19,17,13,16.00
2021,05,19,17,14,16.00
2021,05,19,17,15,16.00
2021,05,19,17,16,15.90
2021,05,19,17,17,15.90
2021,05,19,17,18,15.80
2021,05,19,17,19,15.90
2021,05,19,17,20,15.90
2021,05,19,17,21,15.90
2021,05,19,17,22,15.90
2021,05,19,17,23,15.90
2021,05,19,17,24,15.90
2021,05,19,17,25,15.90
2021,05,19,17,26,15.90
2021,05,19,17,27,16.00
2021,05,19,17,28,16.10
2021,05,19,17,29,16.10
2021,05,19,17,30,16.20
2021,05,19,17,31,16.30
2021,05,19,17,32,16.30
2021,05,19,17,33,16.30
2021,05,19,17,34,16.40
2021,05,19,17,35,16.40
2021,05,19,17,36,16.30
2021,05,19,17,37,16.30
2021,05,19,17,38,16.40
2021,05,19,17,39,16.30
2021,05,19,17,40,16.30
2021,05,19,17,41,16.40
2021,05,19,17,42,16.30
2021,05,19,17,43,16.30
2021,05,19,17,44,16.20
2021,05,19,17,45,16.20
2021,05,19,17,46,16.10